AirNav   Air Wisconsin pilot careers
 
 959 users online  

TS86 Community Hospital Heliport
Missouri City, Texas, USA

GOING TO MISSOURI CITY?


FAA INFORMATION EFFECTIVE 26 APRIL 2018

Location

FAA Identifier: TS86
Lat/Long: 29-33-45.8480N / 095-33-50.8010W
29-33.764133N / 095-33.846683W
29.5627356 / -95.5641114
(estimated)
Elevation: 70 ft. / 21 m (estimated)
Variation: 06E (1985)
Time zone: UTC -5 (UTC -6 during Standard Time)
Zip code: 77459

Heliport Operations

Heliport use: Private use, MEDICAL.
Activation date: 07/1984
Control tower: no
ARTCC: HOUSTON CENTER
FSS: MONTGOMERY COUNTY FLIGHT SERVICE STATION
FOR FP FILING CALL CXO FSS 1-800-833-5602.
Attendance: CONTINUOUS
Wind indicator: yes
Segmented circle: no

Heliport Communications

WX AWOS-3 at AXH (6 nm SE): 123.625 (281-431-6572)
WX ASOS at SGR (6 nm NW): 118.125 (281-242-7605)
WX ASOS at HOU (16 nm E): PHONE 713-847-1462
WX ASOS at LVJ (17 nm E): 118.525 (281-992-1853)

Nearby radio navigation aids

VOR radial/distance  VOR name  Freq  Var
HUBr245/16.0HOBBY VOR/DME117.1005E
IAHr201/26.2HUMBLE VORTAC116.6005E
ELAr091/39.7EAGLE LAKE VOR/DME116.4008E

 
NDB name  Hdg/Dist  Freq  Var  ID
NIXIN210/31.632605EBVP -... ...- .--.
WHARTON053/35.924506EARM .- .-. --

Heliport Services

Runway Information

Helipad H1

Dimensions: 55 x 55 ft. / 17 x 17 m
Surface: concrete
PERIMETER LGTS ON HELIPAD.
Traffic pattern: leftleft

Heliport Ownership and Management from official FAA records

Ownership: Privately-owned
Owner: FT BEND COMMUNITY HOSPITAL
3803 FM 1092 AT HWY 6
MISSOURI CITY, TX 77459
Phone 713-499-4800
Manager: MARSHA POWERS, ADM.
3803 FM 1092 AT HWY 6
MISSOUR CITY, TX 77459
Phone 713-499-4800
AND RONALD L. KOZLOVSKY, ENGINEER.

Additional Remarks

A52-H1 35' LGT STANDARD APRXLY 75' NORTH OF HELIPAD; 220' OFFICE BLDG 41' SW; 200' HOSPITAL BLDG 24' NW.

Instrument Procedures

There are no published instrument procedures at TS86.

Some nearby airports with instrument procedures:

KAXH - Houston Southwest Airport (6 nm SE)
KSGR - Sugar Land Regional Airport (6 nm NW)
KHOU - William P Hobby Airport (16 nm E)
KIWS - West Houston Airport (16 nm N)
KLVJ - Pearland Regional Airport (17 nm E)
 
Loc | Ops | Rwys | IFR | FBO | Links
Com | Nav | Svcs | Stats | Notes

AirNav Hotels Sweepstakes
 
Area around TS86 (Community Hospital Heliport)
 
Road maps at: MapQuest Bing Google
 
Aerial photo
No photo
 
Sectional chart

 
Airport distance calculator
Flying to Community Hospital Heliport? Find the distance to fly.

From to TS86

Sunrise and sunset
Times for 23-May-2018
 Local
(UTC-5)
 Zulu
(UTC)
Morning civil twilight06:0011:00
Sunrise06:2611:26
Sunset20:1201:12
Evening civil twilight20:3801:38

Current date and time
Zulu (UTC)  24-May-2018 01:20:44
Local (UTC-5)  23-May-2018 20:20:44
 
METAR
KSGR 
6nm NW 
240053Z 12008KT 10SM CLR 27/21 A2999 RMK AO2 SLP155 T02720211
KAXH 
6nm SE 
240055Z AUTO 11004KT 10SM CLR 25/22 A3000 RMK AO2 T02470221
KHOU 
15nm E 
240053Z 11007KT 10SM FEW025 SCT170 BKN250 26/23 A2999 RMK AO2 SLP161 T02560228
KLVJ 
17nm E 
240053Z AUTO 09005KT 10SM FEW019 26/23 A3001 RMK AO2 SLP161 T02610228
TAF
KSGR 
6nm NW 
231916Z 2319/2418 11008KT P6SM VCSH FEW035 FEW060 SCT070 FM232200 13007KT P6SM BKN250 FM240100 VRB03KT P6SM SCT250 FM240900 VRB03KT P6SM FEW015 FM241600 09005KT P6SM VCSH SCT035
KHOU 
15nm E 
232047Z 2321/2418 11006KT P6SM VCSH FEW025 BKN180 FM232200 11006KT P6SM SCT180 BKN250 FM240100 VRB03KT P6SM SCT250 FM240900 VRB03KT P6SM SCT020 FM241600 10005KT P6SM VCSH SCT035
NOTAMs
Click for the latest NOTAMs
NOTAMs are issued by the DoD/FAA and will open in a separate window not controlled by AirNav.

 

 
 

Would you like to see your business listed on this page?

 If your business provides an interesting product or service to pilots, flight crews, aircraft, or users of the Community Hospital Heliport, you should consider listing it here.  To start the listing process, click on the button below
 
Add a business
 

Other Pages about Community Hospital Heliport

Update a link
 
Copyright © AirNav, LLC. All rights reserved. Privacy Policy  Contact